Louisville International Standiford Field
KSDF : now visible

Airfield :











YOU CAN JOIN US ON...

 
LOGIN :

Register | Disclaimer

   EN    FR    IT 

 









Legend :    VFR   Marginal VFR   IFR   Intensive IFR   Very Intensive IFR
Visi :
Ceiling :
>= 8 km
>= 3000ft
5 to 8 km
1000 to 3000 ft
1500m to 5 km
500 to 1000 ft
800 to 1500m
200 to 500 ft
< 800m
< 200 ft
Symbols :   Thunderstorms  Fog  Heavy snow  Heavy precipitations  Wind > 20 kt






- Airport Elevation : 501 ft
- IATA code : SDF


KSDF - Louisville International Standiford Field

CURRENT METAR :
  • 230156Z 29003KT 10SM CLR 11/M06 A3017 RMK AO2 SLP215 T01061061

EXPIRED METARs :
  • 230056Z 30005KT 10SM CLR 11/M07 A3015 RMK AO2 SLP210 T01061067
  • 222356Z 30008KT 10SM FEW200 12/M06 A3014 RMK AO2 SLP207 T01221061 10144 20111 56003

TAF KSDF
Valid from the 23 at 00:00 until the 24 at 06:00 UTC


222320Z 2300/2406 29005KT P6SM SKC
FM230700 VRB03KT P6SM BKN120
FM231500 19007KT P6SM BKN050
KZID FIR / North America



MET'MAP, your aeronautical weather chart ! - Copyright ORBIFLY December 2007 - Disclaimer

ORBIFLY MET'MAP TEAM :

Programming & Development : Alexandra Zaïnal
Concept & original design : Baudouin d'Aumeries
Assistance for programming : Marc-Olivier Méhu
Technical & hardware support : Manuel Goepfert

Contact : metmap@orbifly.com




SOURCES & CREDITS :

   NOAA       Earth
Advisory